Regional Weather Roundup
Issued by NWS

Home | Current Version | Previous Version | Text Only | Print | Product List | Glossary Off
Versions: 1 2 3 4 5 6 7 8 9 10 11 12 13 14 15 16 17 18 19 20 21 22 23 24 25 26 27

000
ASUS45 KPSR 251810
RWRAZ

ARIZONA HOURLY REGIONAL WEATHER ROUNDUP
NATIONAL WEATHER SERVICE PHOENIX AZ
1100 AM MST SAT FEB 25 2017

NOTE: FAIR INDICATES FEW OR NO CLOUDS BELOW 12,000 FEET WITH NO
SIGNIFICANT WEATHER AND/OR OBSTRUCTIONS TO VISIBILITY.

AZZ001>003-036-251900-
NORTHWEST ARIZONA

CITY           SKY/WX    TMP DP  RH WIND       PRES   REMARKS
BULLHEAD CITY  SUNNY     52  28  40 CALM      30.13F
KINGMAN        SUNNY     50   0  12 SW14      30.09S
6HR MIN TEMP:  25; 6HR MAX TEMP:  51;

$$

AZZ004>008-015-016-018-251900-
NORTH CENTRAL ARIZONA

CITY           SKY/WX    TMP DP  RH WIND       PRES   REMARKS
GRAND CANYON   SUNNY     33  14  45 S10       30.05S WCI  25
6HR MIN TEMP:  11; 6HR MAX TEMP:  34;

WILLIAMS       SUNNY     37   5  25 W9G18     30.06S WCI  31
PRESCOTT       SUNNY     45  12  26 NE5       30.08F
6HR MIN TEMP:  20; 6HR MAX TEMP:  45;

FLAGSTAFF      SUNNY     37   5  26 W12G21    30.04F WCI  29
6HR MIN TEMP:  13; 6HR MAX TEMP:  37;

PAYSON         SUNNY     43  16  33 VRB3      30.12F
PAGE           SUNNY     39   4  23 N6        30.08F WCI  35
6HR MIN TEMP:  27; 6HR MAX TEMP:  39;

$$

AZZ009>014-017-251900-
NORTHEAST ARIZONA

CITY           SKY/WX    TMP DP  RH WIND       PRES   REMARKS
WINSLOW        SUNNY     42  14  32 VRB3      30.07F
6HR MIN TEMP:  17; 6HR MAX TEMP:  43;

SAINT JOHNS    SUNNY     43  12  28 NE3       30.04F
6HR MIN TEMP:  15; 6HR MAX TEMP:  43;

WINDOW ROCK    SUNNY     38   8  29 S6        30.03F WCI  33
6HR MIN TEMP:  12; 6HR MAX TEMP:  39;

SHOW LOW       SUNNY     39   3  22 SW14G20   30.08S WCI  31
$$

AZZ023-251900-
GREATER PHOENIX AREA

CITY           SKY/WX    TMP DP  RH WIND       PRES   REMARKS
PHOENIX        MOSUNNY   57  26  30 S5        30.11S
6HR MIN TEMP:  42; 6HR MAX TEMP:  57;

BUCKEYE        SUNNY     57  27  30 E8        30.13R
GLENDALE       SUNNY     54  32  43 CALM      30.14S
LUKE AFB       SUNNY     56  28  34 CALM      30.12S
6HR MIN TEMP:  37; 6HR MAX TEMP:  56;

DEER VALLEY    SUNNY     55  23  28 S3        30.11S
6HR MIN TEMP:  37; 6HR MAX TEMP:  55;

SCOTTSDALE     SUNNY     56  21  25 S5        30.12S
6HR MIN TEMP:  38; 6HR MAX TEMP:  56;

MESA-FALCON    SUNNY    N/A N/A N/A VRB5      30.09S
MESA-GATEWAY   SUNNY     54  28  37 CALM      30.12S
CHANDLER       SUNNY     55  27  33 CALM      30.12S
$$

AZZ027-028-251900-
SOUTHWEST MARICOPA COUNTY AND PINAL COUNTY

CITY           SKY/WX    TMP DP  RH WIND       PRES   REMARKS
CASA GRANDE    NOT AVBL
$$

AZZ503-504-507>509-251900-
SOUTHEAST ARIZONA

CITY           SKY/WX    TMP DP  RH WIND       PRES   REMARKS
TUCSON         SUNNY     56  17  21 SE5       30.10F
6HR MIN TEMP:  36; 6HR MAX TEMP:  56;

DAVIS-MONTHAN  SUNNY     56  17  21 VRB3      30.09F
6HR MIN TEMP:  35; 6HR MAX TEMP:  56;

RYAN FIELD     SUNNY     57  21  24 E7        30.11F
NOGALES        SUNNY     58   7  13 SE5       30.09F
6HR MIN TEMP:  26; 6HR MAX TEMP:  59;

SIERRA VISTA   SUNNY     53   8  16 CALM      30.11F
6HR MIN TEMP:  31; 6HR MAX TEMP:  55;

DOUGLAS        SUNNY     54  12  18 SE5       30.11F
6HR MIN TEMP:  24; 6HR MAX TEMP:  54;

SAFFORD        SUNNY     51  15  23 S5        30.10F
6HR MIN TEMP:  25; 6HR MAX TEMP:  51;

$$

AZZ020-021-025-026-031-251900-
SOUTHWEST ARIZONA

CITY           SKY/WX    TMP DP  RH WIND       PRES   REMARKS
YUMA           SUNNY     61  32  33 NE3       30.11S
6HR MIN TEMP:  45; 6HR MAX TEMP:  61;

$$

CAZ031-033-041-043-047-048-061-251900-
SOUTHERN CALIFORNIA

CITY           SKY/WX    TMP DP  RH WIND       PRES   REMARKS
DOWNTOWN L.A.  SUNNY     59  36  42 CALM      30.12F
6HR MIN TEMP:  44; 6HR MAX TEMP:  60;

L.A. AIRPORT   MOSUNNY   55  41  59 CALM      30.13F
6HR MIN TEMP:  43; 6HR MAX TEMP:  56;

SAN DIEGO      MOSUNNY   59  36  42 W3        30.15S
6HR MIN TEMP:  47; 6HR MAX TEMP:  59;

BURBANK        SUNNY     52  32  46 S5        30.12F
6HR MIN TEMP:  37; 6HR MAX TEMP:  53; 6HR PCP: TRACE;

ONTARIO        MOSUNNY   52  35  52 CALM      30.12F
6HR MIN TEMP:  37; 6HR MAX TEMP:  52;

RIVERSIDE      SUNNY     52  38  58 CALM      30.13F
6HR MIN TEMP:  37; 6HR MAX TEMP:  52;

PALM SPRINGS   SUNNY     60  35  39 CALM      30.12F
6HR MIN TEMP:  43; 6HR MAX TEMP:  60;

EL CENTRO NAS  SUNNY     61  35  37 NW3       30.12F
6HR MIN TEMP:  40; 6HR MAX TEMP:  61;

IMPERIAL         N/A    N/A N/A N/A MISG      30.10F
BLYTHE         SUNNY     54  34  46 CALM      30.12F
6HR MIN TEMP:  38; 6HR MAX TEMP:  55;

NEEDLES        SUNNY     54  27  35 E6        30.12S
6HR MIN TEMP:  41; 6HR MAX TEMP:  54;

$$

NVZ020-UTZ003-251900-
SOUTHERN NEVADA-UTAH

CITY           SKY/WX    TMP DP  RH WIND       PRES   REMARKS
LAS VEGAS      MOSUNNY   48  16  27 VRB5      30.09S
6HR MIN TEMP:  37; 6HR MAX TEMP:  49;

SALT LAKE CITY CLOUDY    29  17  61 S7        30.10R WCI  22
6HR MIN TEMP:  22; 6HR MAX TEMP:  29;

$$

NMZ009-TXZ055-251900-
NEW MEXICO-WEST TEXAS

CITY           SKY/WX    TMP DP  RH WIND       PRES   REMARKS
ALBUQUERQUE    SUNNY     40   3  21 W8        30.07F WCI  34
6HR MIN TEMP:  24; 6HR MAX TEMP:  40;

EL PASO        SUNNY     57   5  12 SW12      30.08F
6HR MIN TEMP:  40; 6HR MAX TEMP:  58;

$$


........................KEY........................
SKY/WX - SKY CONDITION/WEATHER
TMP    - TEMPERATURE IN FAHRENHEIT
DP     - DEW POINT IN FAHRENHEIT
RH     - RELATIVE HUMIDITY IN PERCENT
WIND   - DIRECTION AND SPEED IN MILES PER HOUR (MPH)
VRB    - VARIABLE WIND DIRECTION
PRES   - MEAN SEA LEVEL PRESSURE IN INCHES OF MERCURY
         F - FALLING PRESSURE   R - RISING PRESSURE
         S - STEADY PRESSURE
VSB    - VISIBILITY IN MILES
HX     - HEAT INDEX IN FAHRENHEIT
WCI    - WIND CHILL INDEX IN FAHRENHEIT
TC     - TEMPERATURE IN CELSIUS WHICH IS ALSO KNOWN AS
         TEMPERATURE IN CENTIGRADE
AFB    - AIR FORCE BASE
         LUKE AFB IS LUKE AIR FORCE BASE
         DAVIS-MONTHAN IS DAVIS-MONTHAN AIR FORCE BASE
NAS    - NAVAL AIR STATION
         EL CENTRO NAS IS EL CENTRO NAVAL AIR STATION
N/A    - NOT AVAILABLE





USA.gov is the U.S. government's official web portal to all federal, state and local government web resources and services.